Findlay, OH

4:20 AM EST on November 18, 2019 (GMT -0500)
Findlay

Weather History for KFDY - October, 2019

Change the Weather History Date:

Tuesday, October 22, 2019

  Actual Average Record
Temperature  
Mean Temperature 54 °F -  
Max Temperature 63 °F 59 °F 81 °F (1963)
Min Temperature 46 °F 40 °F 26 °F (1997)
Degree Days  
Heating Degree Days 10    
Growing Degree Days 4 (Base 50)    
Moisture  
Dew Point 42 °F    
Average Humidity 64    
Maximum Humidity 83    
Minimum Humidity 47    
Precipitation  
Precipitation 0.00 in - - ()
Sea Level Pressure  
Sea Level Pressure 29.73 in    
Wind  
Wind Speed 14 mph (SW)    
Max Wind Speed 22 mph    
Max Gust Speed 33 mph    
Visibility 10 miles    
Events      
Averages and records for this station are not official NWS values.
T = Trace of Precipitation, MM = Missing Value Source: NWS Daily Summary

Daily Weather History Graph

Daily Weather History Graph

Search for Another Location

Airport or City:

Astronomy

Oct. 22, 2019 Rise Set
Actual Time 7:53 AM EDT 6:43 PM EDT
Civil Twilight 7:25 AM EDT 7:11 PM EDT
Nautical Twilight 6:53 AM EDT 7:43 PM EDT
Astronomical Twilight 6:21 AM EDT 8:15 PM EDT
Moon 12:58 AM EDT (10/22) 3:56 PM EDT (10/22)
Length of Visible Light 11h 46m
Length of Day
10h 50m
Last Quarter, 37% of the Moon is Illuminated
Oct 22
Last Quarter
Oct 27
New
Nov 4
First Quarter
Nov 12
Full
Nov 19
Last Quarter

Hourly Weather History & Observations

Time (EDT) Temp. Dew Point Humidity Pressure Visibility Wind Dir Wind Speed Gust Speed Precip Events Conditions
12:53 AM 63.0 °F 57.0 °F 81% 29.68 in 10.0 mi SSW 15.0 mph - N/A   Overcast
1:53 AM 62.1 °F 55.9 °F 80% 29.68 in 10.0 mi SSW 13.8 mph - N/A   Partly Cloudy
2:53 AM 60.1 °F 46.0 °F 60% 29.71 in 10.0 mi West 17.3 mph 27.6 mph N/A   Overcast
3:00 AM 59.0 °F 45.0 °F 60% 29.73 in 10.0 mi West 13.8 mph - N/A   Overcast
3:53 AM 52.0 °F 45.0 °F 77% 29.70 in 10.0 mi SSW 5.8 mph - N/A   Clear
4:53 AM 50.0 °F 44.1 °F 80% 29.68 in 10.0 mi South 8.1 mph - N/A   Clear
5:53 AM 46.9 °F 42.1 °F 83% 29.67 in 10.0 mi South 9.2 mph - N/A   Clear
6:53 AM 52.0 °F 43.0 °F 71% 29.69 in 10.0 mi South 11.5 mph - N/A   Partly Cloudy
7:53 AM 50.0 °F 42.1 °F 74% 29.68 in 10.0 mi SSW 10.4 mph - N/A   Clear
8:53 AM 53.1 °F 43.0 °F 69% 29.69 in 10.0 mi SSW 13.8 mph - N/A   Clear
9:53 AM 57.0 °F 44.1 °F 62% 29.70 in 10.0 mi SW 16.1 mph 24.2 mph N/A   Clear
11:53 AM 59.0 °F 42.1 °F 53% 29.68 in 10.0 mi SW 21.9 mph 33.4 mph N/A   Scattered Clouds
12:53 PM 55.9 °F 41.0 °F 57% 29.70 in 10.0 mi WSW 18.4 mph 29.9 mph N/A   Overcast
1:53 PM 57.0 °F 39.0 °F 51% 29.70 in 10.0 mi SW 18.4 mph 32.2 mph N/A   Overcast
2:53 PM 59.0 °F 39.0 °F 48% 29.70 in 10.0 mi WSW 21.9 mph 28.8 mph N/A   Overcast
3:53 PM 57.9 °F 37.9 °F 47% 29.72 in 10.0 mi WSW 20.7 mph 27.6 mph N/A   Overcast
4:53 PM 57.0 °F 37.9 °F 49% 29.74 in 10.0 mi WSW 17.3 mph 28.8 mph N/A   Overcast
5:53 PM 55.9 °F 39.9 °F 55% 29.76 in 10.0 mi WSW 17.3 mph 24.2 mph N/A   Overcast
6:53 PM 54.0 °F 37.9 °F 55% 29.78 in 10.0 mi WSW 21.9 mph 28.8 mph N/A   Mostly Cloudy
7:53 PM 52.0 °F 37.0 °F 57% 29.81 in 10.0 mi SW 12.7 mph - N/A   Mostly Cloudy
8:53 PM 50.0 °F 37.0 °F 61% 29.83 in 10.0 mi SW 11.5 mph - N/A   Clear
9:53 PM 48.9 °F 37.9 °F 66% 29.83 in 10.0 mi SSW 10.4 mph - N/A   Partly Cloudy
10:53 PM 50.0 °F 39.0 °F 66% 29.84 in 10.0 mi SSW 13.8 mph - N/A   Overcast
11:53 PM 50.0 °F 39.0 °F 66% 29.85 in 10.0 mi SSW 16.1 mph - N/A   Mostly Cloudy